Location: Moscow
(55.7500°N, 37.5830°E)
Time: 10:16:30
(UTC+03:00)

A-11 Canister half - Pass Details

Date: 30 November 2021
Orbit: 1516 x 1684 km, 47.2° (Epoch: 24 January)

Event Time Altitude Azimuth Distance (km) Brightness Sun altitude
Rises 16:00:55 0° 283° (WNW) 4,929 12.2 -0.6°
Reaches altitude 10° 16:05:52 10° 263° (W) 3,948 12.2 -1.2°
Maximum altitude 16:10:58 15° 232° (SW) 3,534 12.8 -1.7°
Drops below altitude 10° 16:16:04 10° 201° (SSW) 3,935 12.2 -2.3°
Sets 16:21:03 0° 181° (S) 4,903 12.2 -2.9°
